5 kleines Gehege Affenhaus Messungen

Zurück zum Überblick

Zeitpunkt Temperatur Luftfeuchte
23.01.2021 20:31:06 16,4 C 52,0%
23.01.2021 20:24:05 16,2 C 52,0%
23.01.2021 20:17:02 16,1 C 52,0%
23.01.2021 20:10:00 15,9 C 52,0%
23.01.2021 20:03:00 15,7 C 52,0%
23.01.2021 19:55:58 15,6 C 52,0%
23.01.2021 19:48:56 15,6 C 52,0%
23.01.2021 19:41:56 15,7 C 52,0%
23.01.2021 19:34:53 15,8 C 52,0%
23.01.2021 19:27:51 15,9 C 52,0%
23.01.2021 19:20:50 16,0 C 52,0%
23.01.2021 19:13:47 16,0 C 52,0%
23.01.2021 19:06:44 16,0 C 52,0%
23.01.2021 18:59:42 16,1 C 52,0%
23.01.2021 18:52:41 16,2 C 52,0%
23.01.2021 18:45:39 16,3 C 52,0%
23.01.2021 18:38:38 16,4 C 52,0%
23.01.2021 18:31:36 16,5 C 52,0%
23.01.2021 18:24:35 16,6 C 52,0%
23.01.2021 18:17:33 16,7 C 52,0%
23.01.2021 18:10:33 16,7 C 52,0%
23.01.2021 18:03:31 16,9 C 52,0%
23.01.2021 17:56:28 17,0 C 52,0%
23.01.2021 17:49:27 17,1 C 52,0%
23.01.2021 17:42:25 17,3 C 52,0%
23.01.2021 17:35:23 17,3 C 52,0%
23.01.2021 17:28:21 17,4 C 52,0%
23.01.2021 17:21:18 17,5 C 52,0%
23.01.2021 17:14:17 17,6 C 52,0%
23.01.2021 17:07:16 17,7 C 52,0%
23.01.2021 17:00:14 17,8 C 52,0%
23.01.2021 16:53:13 17,9 C 51,0%
23.01.2021 16:46:11 18,0 C 51,0%
23.01.2021 16:39:09 18,0 C 51,0%
23.01.2021 16:32:07 18,1 C 51,0%
23.01.2021 16:25:05 18,1 C 51,0%
23.01.2021 16:18:05 18,2 C 51,0%
23.01.2021 16:11:02 18,2 C 51,0%
23.01.2021 16:03:59 18,2 C 51,0%
23.01.2021 15:56:57 18,1 C 51,0%
23.01.2021 15:49:54 18,1 C 51,0%
23.01.2021 15:42:53 18,1 C 51,0%
23.01.2021 15:35:51 18,2 C 51,0%
23.01.2021 15:28:49 18,2 C 51,0%
23.01.2021 15:21:48 18,3 C 51,0%
23.01.2021 15:14:45 18,4 C 51,0%
23.01.2021 15:07:44 18,5 C 51,0%
23.01.2021 15:00:43 18,6 C 51,0%
23.01.2021 14:53:42 18,7 C 51,0%
23.01.2021 14:46:40 18,7 C 52,0%
23.01.2021 14:39:37 18,8 C 52,0%
23.01.2021 14:32:35 18,8 C 52,0%
23.01.2021 14:25:35 18,8 C 52,0%
23.01.2021 14:18:33 18,7 C 52,0%
23.01.2021 14:11:30 18,4 C 52,0%
23.01.2021 14:04:27 18,1 C 52,0%
23.01.2021 13:57:26 17,8 C 52,0%
23.01.2021 13:50:25 17,5 C 52,0%
23.01.2021 13:43:23 17,2 C 52,0%
23.01.2021 13:36:21 16,9 C 52,0%
23.01.2021 13:29:17 16,7 C 52,0%
23.01.2021 13:22:18 16,4 C 52,0%
23.01.2021 13:15:15 16,3 C 53,0%
23.01.2021 13:08:13 16,1 C 53,0%
23.01.2021 13:01:12 16,1 C 53,0%
23.01.2021 12:54:10 16,0 C 53,0%
23.01.2021 12:47:07 16,0 C 53,0%
23.01.2021 12:40:04 16,0 C 53,0%
23.01.2021 12:33:03 15,9 C 53,0%
23.01.2021 12:26:00 15,9 C 53,0%
23.01.2021 12:18:57 15,9 C 52,0%
23.01.2021 12:11:55 15,8 C 52,0%
23.01.2021 12:04:52 15,8 C 52,0%
23.01.2021 11:57:48 15,9 C 52,0%
23.01.2021 11:50:45 15,9 C 52,0%
23.01.2021 11:43:43 16,0 C 52,0%
23.01.2021 11:36:41 16,1 C 52,0%
23.01.2021 11:29:40 16,1 C 52,0%
23.01.2021 11:22:38 16,2 C 52,0%
23.01.2021 11:15:35 16,2 C 52,0%
23.01.2021 11:08:32 16,3 C 52,0%
23.01.2021 11:01:29 16,4 C 52,0%
23.01.2021 10:54:28 16,4 C 52,0%
23.01.2021 10:47:28 16,5 C 52,0%
23.01.2021 10:40:25 16,5 C 52,0%
23.01.2021 10:33:22 16,4 C 52,0%
23.01.2021 10:26:22 16,1 C 52,0%
23.01.2021 10:19:18 16,0 C 52,0%
23.01.2021 10:12:16 15,8 C 52,0%
23.01.2021 10:05:14 15,6 C 53,0%
23.01.2021 09:58:14 15,7 C 53,0%
23.01.2021 09:51:10 15,7 C 52,0%
23.01.2021 09:44:08 15,8 C 52,0%
23.01.2021 09:37:06 15,8 C 52,0%
23.01.2021 09:30:06 15,9 C 52,0%
23.01.2021 09:23:05 15,9 C 52,0%
23.01.2021 09:16:03 16,0 C 52,0%
23.01.2021 09:09:01 16,1 C 52,0%
23.01.2021 09:01:59 16,1 C 52,0%
23.01.2021 08:54:55 16,2 C 52,0%
23.01.2021 08:47:53 16,4 C 52,0%
23.01.2021 08:40:52 16,4 C 52,0%
23.01.2021 08:33:48 16,5 C 52,0%
23.01.2021 08:26:47 16,7 C 52,0%
23.01.2021 08:19:46 16,7 C 52,0%
23.01.2021 08:12:42 16,8 C 52,0%
23.01.2021 08:05:41 16,9 C 52,0%
23.01.2021 07:58:39 16,7 C 52,0%
23.01.2021 07:51:35 16,4 C 52,0%
23.01.2021 07:44:34 16,2 C 52,0%
23.01.2021 07:37:34 16,1 C 52,0%
23.01.2021 07:30:31 15,9 C 52,0%
23.01.2021 07:23:28 15,7 C 53,0%
23.01.2021 07:16:26 15,6 C 53,0%
23.01.2021 07:09:23 15,7 C 53,0%
23.01.2021 07:02:22 15,7 C 53,0%
23.01.2021 06:55:19 15,8 C 53,0%
23.01.2021 06:48:18 15,8 C 53,0%
23.01.2021 06:41:16 15,9 C 53,0%
23.01.2021 06:34:15 16,0 C 52,0%
23.01.2021 06:27:12 16,1 C 52,0%
23.01.2021 06:20:11 16,1 C 52,0%
23.01.2021 06:13:11 16,2 C 52,0%
23.01.2021 06:06:08 16,2 C 52,0%
23.01.2021 05:59:05 16,3 C 52,0%
23.01.2021 05:52:02 16,4 C 52,0%
23.01.2021 05:45:01 16,5 C 52,0%
23.01.2021 05:38:00 16,6 C 52,0%
23.01.2021 05:30:57 16,7 C 52,0%
23.01.2021 05:23:56 16,7 C 52,0%
23.01.2021 05:16:55 16,9 C 52,0%
23.01.2021 05:09:55 17,0 C 52,0%
23.01.2021 05:02:51 17,1 C 52,0%
23.01.2021 04:55:51 17,1 C 52,0%
23.01.2021 04:48:48 17,0 C 52,0%
23.01.2021 04:41:48 16,8 C 52,0%
23.01.2021 04:34:47 16,7 C 52,0%
23.01.2021 04:27:46 16,6 C 52,0%
23.01.2021 04:20:45 16,4 C 52,0%
23.01.2021 04:13:43 16,2 C 52,0%
23.01.2021 04:06:42 16,0 C 53,0%
23.01.2021 03:59:39 15,8 C 53,0%
23.01.2021 03:52:38 15,7 C 53,0%
23.01.2021 03:45:34 15,7 C 53,0%
23.01.2021 03:38:31 15,7 C 53,0%
23.01.2021 03:31:29 15,8 C 53,0%
23.01.2021 03:24:27 15,8 C 53,0%
23.01.2021 03:17:25 15,9 C 53,0%
23.01.2021 03:10:24 16,0 C 53,0%
23.01.2021 03:03:21 16,0 C 53,0%
23.01.2021 02:56:19 16,1 C 53,0%
23.01.2021 02:49:16 16,1 C 53,0%
23.01.2021 02:42:15 16,2 C 53,0%
23.01.2021 02:35:12 16,3 C 53,0%
23.01.2021 02:28:10 16,4 C 53,0%
23.01.2021 02:21:08 16,5 C 53,0%
23.01.2021 02:14:05 16,5 C 52,0%
23.01.2021 02:07:03 16,6 C 52,0%
23.01.2021 02:00:02 16,7 C 52,0%
23.01.2021 01:52:59 16,7 C 52,0%
23.01.2021 01:45:56 16,7 C 52,0%
23.01.2021 01:38:55 16,6 C 52,0%
23.01.2021 01:31:53 16,4 C 52,0%
23.01.2021 01:24:52 16,2 C 52,0%
23.01.2021 01:17:49 16,0 C 52,0%
23.01.2021 01:10:48 15,8 C 52,0%
23.01.2021 01:03:47 15,7 C 53,0%
23.01.2021 00:56:45 15,5 C 53,0%
23.01.2021 00:49:42 15,5 C 53,0%
23.01.2021 00:42:39 15,5 C 53,0%
23.01.2021 00:35:37 15,6 C 53,0%
23.01.2021 00:28:35 15,7 C 53,0%
23.01.2021 00:21:32 15,7 C 53,0%
23.01.2021 00:14:30 15,8 C 53,0%
23.01.2021 00:07:27 15,8 C 53,0%
23.01.2021 00:00:26 15,9 C 53,0%